| time (UTC) | temp C | wind direction | speed KPH | gust KPH | rain 1hr cm | rain 24hr cm | rain mn cm | humidity % | barometer mb |
| 20260901074604 | 20 | 360 | 0.0 | 3.2 | 0.00 | 0.00 | 0.00 | 89 | 1013.4 |
| 20260901073059 | 20 | 360 | 0.0 | 1.6 | 0.00 | 0.00 | 0.00 | 88 | 1013.4 |
| 20260901071559 | 20 | 360 | 0.0 | 1.6 | 0.00 | 0.00 | 0.00 | 87 | 1013.6 |
| 20260901070116 | 20 | 360 | 0.0 | 1.6 | 0.00 | 0.00 | 0.00 | 87 | 1013.6 |
| 20260901064606 | 20 | 360 | 0.0 | 1.6 | 0.00 | 0.00 | 0.00 | 87 | 1013.5 |
| 20260901063100 | 20 | 360 | 0.0 | 0.0 | 0.00 | 0.00 | 0.00 | 86 | 1013.4 |
| 20260901061604 | 21 | 360 | 0.0 | 3.2 | 0.00 | 0.00 | 0.00 | 86 | 1013.5 |
| 20260901060052 | 21 | 360 | 0.0 | 3.2 | 0.00 | 0.00 | 0.00 | 87 | 1013.4 |
| 20260901054553 | 21 | 360 | 0.0 | 3.2 | 0.00 | 0.00 | 0.00 | 86 | 1013.4 |
| 20260901053055 | 21 | 360 | 1.6 | 9.7 | 0.00 | 0.00 | 0.00 | 86 | 1013.4 |
| 20260901051548 | 21 | 360 | 1.6 | 6.4 | 0.00 | 0.00 | 0.00 | 87 | 1013.2 |
| 20260901050048 | 21 | 360 | 0.0 | 3.2 | 0.00 | 0.00 | 0.00 | 85 | 1013.2 |
| 20260901044607 | 21 | 360 | 1.6 | 4.8 | 0.00 | 0.00 | 0.00 | 85 | 1013.1 |
| 20260901043047 | 21 | 360 | 1.6 | 8.0 | 0.00 | 0.00 | 0.00 | 84 | 1013.0 |
| 20260901041546 | 21 | 360 | 0.0 | 0.0 | 0.00 | 0.00 | 0.00 | 84 | 1012.9 |
| 20260901040057 | 21 | 360 | 1.6 | 6.4 | 0.00 | 0.00 | 0.00 | 83 | 1012.9 |
| 20260901034545 | 21 | 360 | 1.6 | 8.0 | 0.00 | 0.00 | 0.00 | 83 | 1012.9 |
| 20260901033043 | 21 | 360 | 1.6 | 6.4 | 0.00 | 0.00 | 0.00 | 83 | 1012.6 |
| 20260901031543 | 21 | 360 | 0.0 | 8.0 | 0.00 | 0.00 | 0.00 | 84 | 1012.6 |
| 20260901030043 | 21 | 360 | 3.2 | 8.0 | 0.00 | 0.00 | 0.00 | 84 | 1012.4 |
| 20260901024549 | 21 | 360 | 1.6 | 9.7 | 0.00 | 0.00 | 0.00 | 84 | 1012.1 |
| 20260901023047 | 21 | 360 | 3.2 | 9.7 | 0.00 | 0.00 | 0.00 | 84 | 1011.9 |
| 20260901021602 | 21 | 360 | 3.2 | 9.7 | 0.00 | 0.00 | 0.00 | 84 | 1011.7 |
| 20260901020040 | 22 | 360 | 4.8 | 11.3 | 0.00 | 0.00 | 0.00 | 83 | 1011.8 |
| 20260901014540 | 22 | 360 | 3.2 | 11.3 | 0.00 | 0.00 | 0.00 | 83 | 1011.7 |
| 20260901013039 | 22 | 360 | 4.8 | 11.3 | 0.00 | 0.00 | 0.00 | 82 | 1011.6 |
| 20260901011537 | 22 | 360 | 3.2 | 14.5 | 0.00 | 0.00 | 0.00 | 82 | 1011.6 |
| 20260901010040 | 22 | 360 | 6.4 | 14.5 | 0.00 | 0.00 | 0.00 | 81 | 1011.7 |
| 20260901004537 | 22 | 360 | 4.8 | 12.9 | 0.00 | 0.00 | 0.00 | 80 | 1011.7 |
| 20260901003038 | 22 | 281 | 8.0 | 14.5 | 0.00 | 0.00 | 0.00 | 80 | 1011.9 |
| 20260901001539 | 22 | 300 | 6.4 | 16.1 | 0.00 | 0.00 | 0.00 | 80 | 1011.8 |
| 20260901000038 | 23 | 325 | 6.4 | 12.9 | 0.00 | 0.00 | 0.00 | 79 | 1011.8 |
| 20260831234535 | 23 | 315 | 6.4 | 12.9 | 0.00 | 0.00 | 0.00 | 78 | 1011.9 |
| 20260831233033 | 23 | 288 | 4.8 | 11.3 | 0.00 | 0.00 | 0.00 | 77 | 1012.0 |
| 20260831231550 | 23 | 288 | 6.4 | 16.1 | 0.00 | 0.00 | 0.00 | 78 | 1012.0 |
| 20260831230033 | 23 | 240 | 3.2 | 16.1 | 0.00 | 0.00 | 0.00 | 78 | 1012.1 |
| 20260831224548 | 23 | 255 | 6.4 | 16.1 | 0.00 | 0.00 | 0.00 | 77 | 1012.2 |
| 20260831223031 | 23 | 252 | 3.2 | 14.5 | 0.00 | 0.00 | 0.00 | 76 | 1012.5 |
| 20260831221535 | 24 | 281 | 6.4 | 14.5 | 0.00 | 0.00 | 0.00 | 76 | 1012.6 |
| 20260831220030 | 23 | 277 | 8.0 | 16.1 | 0.00 | 0.00 | 0.00 | 76 | 1012.6 |
| 20260831214535 | 23 | 264 | 9.7 | 22.5 | 0.00 | 0.00 | 0.00 | 79 | 1012.6 |
| 20260831213027 | 23 | 271 | 8.0 | 17.7 | 0.00 | 0.00 | 0.00 | 77 | 1012.7 |
| 20260831211527 | 23 | 275 | 8.0 | 16.1 | 0.00 | 0.00 | 0.00 | 78 | 1012.7 |
| 20260831210031 | 24 | 253 | 1.6 | 16.1 | 0.00 | 0.00 | 0.00 | 76 | 1012.9 |
| 20260831204530 | 24 | 238 | 4.8 | 19.3 | 0.00 | 0.00 | 0.00 | 77 | 1012.9 |
| 20260831203033 | 23 | 268 | 6.4 | 17.7 | 0.00 | 0.00 | 0.00 | 76 | 1013.1 |
| 20260831201522 | 24 | 236 | 6.4 | 14.5 | 0.00 | 0.00 | 0.00 | 75 | 1013.1 |
| 20260831200022 | 24 | 267 | 6.4 | 16.1 | 0.00 | 0.00 | 0.00 | 75 | 1013.1 |
| 20260831194519 | 23 | 307 | 8.0 | 16.1 | 0.00 | 0.00 | 0.00 | 75 | 1013.3 |
| 20260831193019 | 23 | 218 | 6.4 | 17.7 | 0.00 | 0.00 | 0.00 | 76 | 1013.2 |
| 20260831191534 | 23 | 250 | 4.8 | 16.1 | 0.00 | 0.00 | 0.00 | 77 | 1013.3 |
| 20260831190015 | 23 | 275 | 6.4 | 14.5 | 0.00 | 0.00 | 0.00 | 76 | 1013.4 |
| 20260831184514 | 23 | 227 | 1.6 | 14.5 | 0.00 | 0.00 | 0.00 | 77 | 1013.4 |
| 20260831183024 | 23 | 322 | 4.8 | 11.3 | 0.00 | 0.00 | 0.00 | 75 | 1013.4 |
| 20260831181510 | 23 | 284 | 3.2 | 16.1 | 0.00 | 0.00 | 0.00 | 76 | 1013.3 |
| 20260831180009 | 24 | 223 | 3.2 | 11.3 | 0.00 | 0.00 | 0.00 | 75 | 1013.4 |
| 20260831174505 | 23 | 171 | 6.4 | 11.3 | 0.00 | 0.00 | 0.00 | 75 | 1013.2 |
| 20260831173002 | 23 | 214 | 1.6 | 9.7 | 0.00 | 0.00 | 0.00 | 76 | 1013.1 |
| 20260831171602 | 23 | 259 | 3.2 | 11.3 | 0.00 | 0.00 | 0.00 | 77 | 1013.1 |
| 20260831170105 | 23 | 310 | 3.2 | 11.3 | 0.00 | 0.00 | 0.00 | 77 | 1013.0 |
| 20260831164655 | 23 | 209 | 0.0 | 8.0 | 0.00 | 0.00 | 0.00 | 77 | 1012.9 |
| 20260831163053 | 23 | 280 | 3.2 | 9.7 | 0.00 | 0.00 | 0.00 | 77 | 1012.9 |
| 20260831161551 | 23 | 267 | 1.6 | 8.0 | 0.00 | 0.00 | 0.00 | 77 | 1012.9 |
| 20260831160049 | 23 | 217 | 1.6 | 0.0 | 0.00 | 0.00 | 0.00 | 77 | 1012.9 |
| 20260831154614 | 23 | 271 | 0.0 | 6.4 | 0.00 | 0.00 | 0.00 | 78 | 1012.9 |
| 20260831153046 | 23 | 297 | 0.0 | 0.0 | 0.00 | 0.00 | 0.00 | 78 | 1012.9 |
| 20260831151559 | 22 | 194 | 0.0 | 0.0 | 0.00 | 0.00 | 0.00 | 79 | 1012.7 |
| 20260831150041 | 22 | 288 | 0.0 | 0.0 | 0.00 | 0.00 | 0.00 | 81 | 1012.5 |
| 20260831144539 | 22 | 288 | 0.0 | 3.2 | 0.00 | 0.00 | 0.00 | 81 | 1012.5 |
| 20260831143038 | 22 | 288 | 0.0 | 8.0 | 0.00 | 0.00 | 0.00 | 81 | 1012.5 |
| 20260831141537 | 21 | 288 | 0.0 | 0.0 | 0.00 | 0.00 | 0.00 | 82 | 1012.4 |
| 20260831140035 | 21 | 360 | 0.0 | 0.0 | 0.00 | 0.00 | 0.00 | 83 | 1012.2 |
| 20260831134535 | 21 | 360 | 0.0 | 0.0 | 0.00 | 0.00 | 0.00 | 83 | 1011.8 |
| 20260831133035 | 21 | 360 | 0.0 | 0.0 | 0.00 | 0.00 | 0.00 | 83 | 1011.7 |
| 20260831131532 | 21 | 360 | 0.0 | 0.0 | 0.00 | 0.00 | 0.00 | 84 | 1011.6 |
| 20260831130037 | 21 | 360 | 0.0 | 0.0 | 0.00 | 0.00 | 0.00 | 84 | 1011.6 |
| 20260831124543 | 21 | 360 | 0.0 | 0.0 | 0.00 | 0.00 | 0.00 | 84 | 1011.5 |
| 20260831123028 | 21 | 360 | 0.0 | 3.2 | 0.00 | 0.00 | 0.00 | 85 | 1011.5 |
| 20260831121541 | 21 | 360 | 0.0 | 1.6 | 0.00 | 0.00 | 0.00 | 85 | 1011.4 |
| 20260831120034 | 21 | 360 | 0.0 | 0.0 | 0.00 | 0.00 | 0.00 | 85 | 1011.5 |
| 20260831114531 | 21 | 360 | 0.0 | 3.2 | 0.00 | 0.00 | 0.00 | 85 | 1011.5 |
| 20260831113026 | 21 | 360 | 0.0 | 1.6 | 0.00 | 0.00 | 0.00 | 84 | 1011.4 |
| 20260831111524 | 21 | 360 | 0.0 | 6.4 | 0.00 | 0.00 | 0.00 | 84 | 1011.4 |
| 20260831110024 | 21 | 360 | 0.0 | 0.0 | 0.00 | 0.00 | 0.00 | 84 | 1011.4 |
| 20260831104521 | 21 | 360 | 0.0 | 1.6 | 0.00 | 0.00 | 0.00 | 84 | 1011.4 |
| 20260831103028 | 21 | 360 | 0.0 | 1.6 | 0.00 | 0.00 | 0.00 | 85 | 1011.6 |
| 20260831101525 | 21 | 360 | 0.0 | 3.2 | 0.00 | 0.00 | 0.00 | 85 | 1011.5 |
| 20260831100021 | 21 | 360 | 0.0 | 1.6 | 0.00 | 0.00 | 0.00 | 85 | 1011.5 |
| 20260831094517 | 21 | 360 | 0.0 | 1.6 | 0.00 | 0.00 | 0.00 | 86 | 1011.7 |
| 20260831093032 | 21 | 360 | 0.0 | 0.0 | 0.00 | 0.00 | 0.00 | 85 | 1011.7 |
| 20260831091514 | 22 | 360 | 0.0 | 3.2 | 0.00 | 0.00 | 0.00 | 86 | 1011.5 |
| 20260831090014 | 22 | 360 | 0.0 | 0.0 | 0.00 | 0.00 | 0.00 | 86 | 1011.5 |
| 20260831084512 | 22 | 360 | 0.0 | 3.2 | 0.00 | 0.00 | 0.00 | 86 | 1011.6 |
| 20260831083011 | 22 | 360 | 0.0 | 0.0 | 0.00 | 0.00 | 0.00 | 86 | 1011.7 |
| 20260831081509 | 22 | 360 | 0.0 | 6.4 | 0.00 | 0.00 | 0.00 | 86 | 1011.8 |
| 20260831080006 | 22 | 360 | 0.0 | 0.0 | 0.00 | 0.00 | 0.00 | 87 | 1011.9 |